Location: The Jewett Observatory
(46.7288°N, 117.1525°W)
Time: 09:23:40
(UTC-07:00)

Daily predictions for brighter satellites

Satellite Brightness Start Highest point End
(mag) Time Altitude Azimuth Time Altitude Azimuth Time Altitude Azimuth
Cosmos 468 Rocket 4.5 19:08:00 10° S 19:12:49 39° ESE 19:17:42 10° NE
NOAA 12 4.2 19:09:59 10° SSE 19:15:14 90° WSW 19:20:32 10° NNW
Cosmos 371 Rocket 3.6 19:14:03 10° S 19:18:41 46° ESE 19:23:22 10° NNE
SKYMED 2 4.1 19:15:21 10° N 19:19:40 68° WNW 19:23:59 10° SSW
BREEZE M DEB (TANK) 3.1 19:10:54 10° WSW 19:20:56 77° SSE 19:24:03 10° ENE
HJ-1C 4.0 19:19:03 10° SE 19:22:08 35° ENE 19:25:14 10° N
USA 229 DEB 3.9 19:16:50 10° NW 19:24:02 86° NE 19:31:22 10° SE
USA 229 3.9 19:16:56 10° NW 19:24:07 85° NE 19:31:27 10° SE
Cosmos 2058 Rocket 3.8 19:22:41 10° SSE 19:26:31 31° E 19:30:22 10° NNE
Cosmos 1953 Rocket 3.6 19:22:25 10° N 19:26:43 55° ENE 19:30:57 10° SSE
BREEZE-M DEB 4.4 19:14:22 10° WNW 19:27:24 64° SW 19:31:02 10° SE
NOSS 3-1 (A) 4.4 19:21:11 10° NW 19:28:15 48° NE 19:36:09 10° ESE
Cosmos 1606 Rocket 3.6 19:25:13 10° S 19:29:28 55° E 19:33:43 10° NNE
Thor Agena Rocket 3.6 19:24:36 10° NNE 19:29:54 68° ESE 19:35:05 10° S
Cosmos 2228 3.7 19:27:03 10° SSE 19:30:55 32° E 19:34:48 10° NNE
Cosmos 1570 Rocket 4.4 19:30:42 10° SSW 19:35:54 70° WNW 19:41:10 10° NNE
Cosmos 1763 Rocket 3.9 19:33:00 10° SSE 19:37:38 37° ESE 19:42:21 10° NE
Cosmos 2208 Rocket 4.4 19:33:19 10° SSW 19:38:45 74° WNW 19:44:13 10° NNE
NOSS 3-1 (C) 4.1 19:31:58 10° NW 19:39:18 65° NE 19:47:33 10° SE
Meteor 2-5 Rocket 3.8 19:38:36 10° N 19:44:30 67° ENE 19:50:15 10° SSE
EP 1 4.3 19:44:11 10° SW 19:46:47 77° NW 19:49:26 10° NE
Cosmos 1825 Rocket 4.1 19:42:40 10° NNW 19:47:02 65° W 19:51:25 10° S
H-2A R/B 2.7 19:45:58 10° S 19:49:40 82° WSW 19:53:27 10° NNW
Cosmos 1943 Rocket 2.6 19:44:17 10° NNW 19:49:49 67° WSW 19:55:22 10° SSE
TIMED 4.5 19:46:42 10° NNW 19:51:06 84° ENE 19:55:28 10° SSE
MOS 1-B Rocket 4.3 19:47:37 10° SE 19:53:33 47° ENE 19:58:58 10° N
Cosmos 1939 Rocket 4.0 19:55:24 19° ESE 19:57:03 25° ENE 20:00:17 10° NNE
Cosmos 1766 4.0 19:54:41 10° SSE 19:58:08 30° E 20:01:36 10° NNE
Spot 2 Rocket 3.7 19:53:40 10° SE 19:58:31 50° ENE 20:03:22 10° N
Cosmos 2181 Rocket 4.2 19:52:23 10° NNW 19:58:38 77° W 20:04:45 10° S
Meteor 2-13 Rocket 4.4 19:56:35 10° S 20:02:39 77° E 20:08:44 10° NNE
USA 267 4.4 19:56:52 10° ENE 20:02:43 36° N 20:08:35 10° WNW
Cosmos 1707 3.3 20:02:05 10° NNW 20:06:00 62° W 20:09:51 10° S
USA 81 4.3 20:04:02 10° N 20:09:20 75° W 20:14:35 10° S
Cosmos 304 Rocket 3.9 20:07:07 10° S 20:11:43 49° ESE 20:16:21 10° NNE
Cosmos 1814 Rocket 3.9 20:08:01 10° SSW 20:13:12 87° ESE 20:18:23 10° NNE
COSMOS 2406 3.8 20:08:11 10° SSE 20:13:15 34° ESE 20:18:21 10° NE
Cosmos 1340 Rocket 4.3 20:10:19 10° NNW 20:14:07 39° W 20:17:54 10° SSW
Cosmos 2154 Rocket 4.5 20:09:48 10° SSE 20:15:25 37° E 20:21:05 10° NNE
Cosmos 1125 Rocket 3.9 20:11:11 10° NNW 20:16:19 47° ENE 20:19:07 25° ESE
Cosmos 389 Rocket 4.2 20:16:01 10° SW 20:19:17 36° WNW 20:22:33 10° N
Cosmos 1356 Rocket 3.5 20:16:49 10° NNW 20:21:07 85° W 20:25:25 10° S
Resurs 1-3 3.5 20:17:59 11° SSE 20:22:15 86° ENE 20:26:41 10° NNW
Cosmos 2074 Rocket 3.9 20:16:31 10° S 20:22:42 78° E 20:28:55 10° N
H-2A R/B 3.9 20:22:55 13° ENE 20:23:11 13° NE 20:25:27 10° NNE
Helios 1A 4.0 20:24:21 27° ENE 20:24:43 28° ENE 20:28:17 10° N
USA 186 1.2 20:28:42 71° SSW 20:28:52 77° W 20:31:21 10° NNW
Lacrosse 5 4.5 20:26:27 10° W 20:28:59 14° WSW 20:31:31 10° SSW
Envisat 2.9 20:25:55 13° SSE 20:30:28 84° ENE 20:35:35 10° NNW
ERS-1 Rocket 4.0 20:31:22 26° ENE 20:32:01 27° ENE 20:36:10 10° N
Cosmos 1656 Rocket 3.9 20:26:40 10° NNW 20:32:18 69° WSW 20:37:00 15° SSE
SJ-11-01 4.3 20:30:35 30° SE 20:32:43 58° ENE 20:37:22 10° N
Resurs 01 Rocket 2.0 20:32:03 10° S 20:36:26 64° WSW 20:40:50 10° NNW
Cosmos 1805 3.4 20:37:41 49° E 20:37:41 49° E 20:41:26 10° NNE
Cosmos 1674 3.6 20:35:29 10° N 20:38:17 32° NE 20:38:17 32° NE
ARGOS 4.2 20:38:44 26° ENE 20:39:20 27° ENE 20:43:47 10° N
Cosmos 372 Rocket 4.0 20:34:10 10° NNW 20:39:23 63° ENE 20:41:23 37° SE
GP-B 3.0 20:39:34 10° N 20:44:03 83° E 20:46:46 23° S
Nadezhda 3 Rocket 3.9 20:40:04 10° N 20:46:25 72° E 20:50:11 26° SSE
Cosmos 1953 3.9 20:48:27 22° NE 20:48:27 22° NE 20:50:13 10° NNE
In-Cosmos 22 4.4 20:43:32 10° NNW 20:49:10 72° W 20:54:17 13° S
ATLAS CENTAUR R/B 4.2 20:38:32 10° NW 20:51:46 48° WSW 20:55:20 21° S
YAOGAN 6 2.5 20:53:41 70° NNE 20:53:41 70° NNE 20:57:00 10° N
Cosmos 2184 Rocket 4.4 20:49:49 10° SSW 20:56:04 65° WNW 21:02:25 10° N
Cosmos 841 Rocket 3.9 20:51:17 10° SSW 20:56:23 63° WNW 21:01:30 10° NNE
Cosmos 1076 Rocket 4.3 20:53:26 10° N 20:56:45 36° NE 20:56:45 36° NE
Cosmos 1544 3.6 20:58:10 26° SSW 21:00:00 58° WNW 21:03:35 10° N
FALCON 9 R/B 3.6 20:58:25 10° SW 21:01:58 27° S 21:01:58 27° S
Cosmos 1812 Rocket 3.6 21:03:03 31° SSW 21:05:12 80° W 21:09:42 10° N
Cosmos 2278 4.2 21:01:44 10° NNW 21:07:07 42° NE 21:07:33 41° ENE
Cosmos 2084 3.5 21:03:12 10° SW 21:07:12 64° NW 21:07:56 51° N
ATLAS 2AS CENTAUR R/B 3.5 21:02:50 10° NW 21:10:38 47° NE 21:13:10 36° E
Okean 3 Rocket 3.7 21:11:06 10° N 21:15:05 66° NNE 21:15:05 66° NNE
Cosmos 1295 Rocket 4.3 21:21:53 57° SSE 21:23:05 75° E 21:29:11 10° NNE
Cosmos 2322 Rocket 4.4 21:22:35 10° NNE 21:24:34 12° NNE 21:25:24 11° NE
GEOS 3 Rocket 3.7 21:20:32 10° NE 21:25:57 80° NW 21:31:20 10° SW
Meteor 2-21 4.4 21:26:07 62° E 21:26:07 62° E 21:32:02 10° NNE
SL-8 Rocket 4.0 21:27:20 57° ENE 21:27:20 57° ENE 21:32:55 10° NNE
Cosmos 1758 4.4 21:28:33 41° NNW 21:28:33 41° NNW 21:31:20 10° N
Cosmos 540 Rocket 3.7 21:23:02 10° SSW 21:28:06 65° WNW 21:33:12 10° NNE
Cosmos 1939 Rocket 4.5 21:31:19 28° WSW 21:31:55 29° W 21:35:21 10° NW
Cosmos 1980 Rocket 3.5 21:34:02 10° N 21:38:14 28° NE 21:38:14 28° NE
Cosmos 1697 Rocket 3.4 21:34:05 10° NNW 21:38:48 41° NE 21:38:48 41° NE
Meteor 2-15 Rocket 4.3 21:35:30 10° N 21:41:28 77° ENE 21:41:28 77° ENE
MetOp-B 4.1 21:43:23 78° NNW 21:43:23 78° NNW 21:48:24 10° NNW
USA 267 4.0 21:43:05 36° NE 21:44:53 44° NNE 21:51:00 10° NW
Cosmos 1809 Rocket 4.3 21:48:54 84° SW 21:49:06 86° W 21:55:17 10° N
Cosmos 1656 4.0 21:51:41 10° NNW 21:56:26 61° N 21:56:26 61° N
COSMOS 2406 4.3 21:52:01 10° SW 21:57:26 43° NW 22:02:55 10° NNE
SL-16 R/B 4.1 21:56:00 10° N 21:59:17 18° NNE 21:59:17 18° NNE
H-2A R/B 3.0 22:03:33 41° N 22:03:33 41° N 22:06:50 10° NNW
Terra 3.8 22:11:30 22° N 22:11:30 22° N 22:13:21 10° N
ERS-1 Rocket 4.0 22:11:23 41° WNW 22:11:23 41° WNW 22:15:24 10° NNW
Cosmos 2369 4.3 22:09:32 10° NNW 22:14:01 52° WNW 22:14:01 52° WNW
ARGOS 4.1 22:20:15 45° WNW 22:20:15 45° WNW 22:24:35 10° NNW
BREEZE-M DEB (TANK) 3.9 22:14:43 10° WNW 22:26:25 66° NW 22:26:25 66° NW
Cosmos 2082 Rocket 4.5 22:56:15 16° NNE 22:56:15 16° NNE 22:57:23 10° NNE
ATLAS 2AS CENTAUR R/B 3.5 22:54:08 10° NW 23:00:36 52° W 23:00:36 52° W
Cosmos 2322 Rocket 4.1 23:04:43 10° NNW 23:07:12 25° N 23:07:12 25° N
Cosmos 2360 Rocket 4.3 23:16:44 10° N 23:18:58 20° N 23:18:58 20° N
Cosmos 1980 Rocket 4.2 23:17:43 10° NW 23:20:00 24° NW 23:20:00 24° NW
USA 267 4.4 23:30:26 37° NW 23:30:26 37° NW 23:34:07 10° NW
SL-16 R/B 4.3 23:39:12 10° NNW 23:41:08 22° NNW 23:41:08 22° NNW
